Regional Weather Roundup
Issued by NWS

Home | Current Version | Previous Version | Graphics & Text | Print | Product List | Glossary On
Versions: 1 2 3 4 5 6 7 8 9 10 11 12 13 14 15 16 17 18 19 20 21 22 23 24 25 26 27 28 29 30 31 32 33 34 35 36 37 38 39 40 41 42 43 44 45 46 47 48 49 50
000
ASUS43 KOAX 292102
RWRNE

WEATHER ROUNDUP FOR NEBRASKA
NATIONAL WEATHER SERVICE OMAHA NE
400 PM CDT THU SEP 29 2016

NOTES: SATELLITE DATA IS BEING USED TO AUGMENT CLOUD COVER ABOVE
       12000 FEET.
       "FAIR" INDICATES FEW OR NO CLOUDS BELOW 12,000 FEET WITH NO
       SIGNIFICANT WEATHER AND/OR OBSTRUCTIONS TO VISIBILITY.

  * THESE STATIONS DO NOT REPORT WEATHER SUCH AS RAIN...SNOW OR FOG.

NEZ001>004-019>022-054>056-292200-
NEBRASKA PANHANDLE

CITY           SKY/WX    TMP DP  RH WIND       PRES   REMARKS
SCOTTSBLUFF    SUNNY     82  44  26 SE17G23   30.23F
ALLIANCE       SUNNY     77  42  28 S22       30.27F
CHADRON        SUNNY     81  42  25 S20       30.20F
KIMBALL        SUNNY     79  43  28 S17G26    30.28F
SIDNEY         SUNNY     79  43  27 SE23G30   30.29F
$$

NEZ057>060-069>072-079>082-292200-
SOUTHWEST NEBRASKA

CITY           SKY/WX    TMP DP  RH WIND       PRES   REMARKS
NORTH PLATTE   SUNNY     74  40  29 S10       30.32F
IMPERIAL       SUNNY     75  39  27 SE17G28   30.30F
LEXINGTON      SUNNY     70  38  31 SE10      30.34F
MCCOOK         SUNNY     73  41  31 SE12      30.33F
OGALLALA       SUNNY     77  40  26 SE13G21   30.30F
$$

NEZ005>010-023>029-035>040-094-292200-
NORTH CENTRAL NEBRASKA

CITY           SKY/WX    TMP DP  RH WIND       PRES   REMARKS
VALENTINE      SUNNY     73  39  29 SE15G23   30.30F
AINSWORTH      SUNNY     71  41  33 SE12      30.32F
BROKEN BOW     SUNNY     69  43  38 SE10      30.34F
O`NEILL        SUNNY     69  42  37 SE8       30.36F
ORD            SUNNY     68  41  37 SE8       30.34F
THEDFORD       SUNNY     74  42  31 S13G20    30.32F
$$

NEZ041-046>049-061>064-073>077-083>087-292200-
SOUTH CENTRAL NEBRASKA

CITY           SKY/WX    TMP DP  RH WIND       PRES   REMARKS
GRAND ISLAND   SUNNY     67  44  43 CALM      30.36F
AURORA         SUNNY     67  45  45 E3        30.36F
HASTINGS       SUNNY     68  44  42 E6        30.36F
HEBRON         SUNNY     69  45  41 E6        30.35F HAZE
HOLDREGE       SUNNY     69  38  31 CALM      30.35F
KEARNEY *      SUNNY     70  41  35 SE5       30.34F
YORK           SUNNY     66  46  48 SE5       30.36F
$$

NEZ011>018-030>034-042>045-292200-
NORTHEAST NEBRASKA

CITY           SKY/WX    TMP DP  RH WIND       PRES   REMARKS
NORFOLK        SUNNY     68  45  43 VRB5      30.36F
ALBION         SUNNY     69  43  39 SE7       30.36F
BLAIR          MOSUNNY   70  49  47 N9        30.36F
FREMONT        SUNNY     69  46  44 NE5       30.36F
TEKAMAH        SUNNY     70  47  43 E8        30.36F
WAYNE          SUNNY     68  49  50 E7        30.37F
$$

NEZ050>053-065>068-078-088>093-292200-
SOUTHEAST NEBRASKA

CITY           SKY/WX    TMP DP  RH WIND       PRES   REMARKS
LINCOLN        SUNNY     71  47  42 E10       30.37F
OMAHA EPPLEY   MOSUNNY   72  48  42 N5        30.35F
BEATRICE       SUNNY     70  48  46 NE7       30.35F
FALLS CITY     SUNNY     72  49  44 N7        30.32F
NEBRASKA CITY  MOSUNNY   69  42  36 N3        30.34F
PLATTSMOUTH    MOSUNNY   70  42  37 NE3       30.35F
$$

NEZ044-045-051>053-067-292200-
OMAHA AREA

CITY           SKY/WX    TMP DP  RH WIND       PRES   REMARKS
OMAHA EPPLEY   MOSUNNY   72  48  42 N5        30.35F
BLAIR          MOSUNNY   70  49  47 N9        30.36F
FREMONT        SUNNY     69  46  44 NE5       30.36F
MILLARD        PTSUNNY   69  50  50 NW6       30.35F
PLATTSMOUTH    MOSUNNY   70  42  37 NE3       30.35F
WAHOO          FAIR      70  46  42 CALM      30.36F
$$




USA.gov is the U.S. government's official web portal to all federal, state and local government web resources and services.